When you browse on this site, cookies collect data to enhance your experience and personalize the content and advertising you see.
Visit our Privacy Policy to learn more. By continuing to use the site, you agree to this use of cookies and data.
  • Em Portugal
  • Lista de países
  • Para 7 dias
  • Temperatura da água
  • Mapas de satélite
  • Mapa do tempo
  • Widgets de tempo
  • user-avatar
    Iniciar Sessão

    Previsão horária em Ballycastle

    Hoje, 19 Julho, Sexta-feira

    Tempo Temperatura Precipitação Vento Pressão Humidade
    00:00 +11°C° 0 mm 4 m/s 752 mmHg 93%
    01:00 +11°C° 0 mm 4 m/s 751 mmHg 93%
    02:00 +11°C° 0 mm 4 m/s 751 mmHg 93%
    03:00 +10°C° 0 mm 3 m/s 751 mmHg 93%
    04:00 +11°C° 0 mm 3 m/s 751 mmHg 93%
    05:00 +11°C° 0 mm 3 m/s 751 mmHg 94%
    06:00 +11°C° 0 mm 3 m/s 750 mmHg 94%
    07:00 +13°C° 0 mm 3 m/s 750 mmHg 91%
    08:00 +14°C° 0 mm 3 m/s 750 mmHg 87%
    09:00 +16°C° 0 mm 3 m/s 750 mmHg 84%
    10:00 +14°C° 0.7 mm 4 m/s 749 mmHg 88%
    11:00 +14°C° 0.7 mm 4 m/s 749 mmHg 91%
    12:00 +13°C° 0.7 mm 4 m/s 748 mmHg 95%
    13:00 +13°C° 2.1 mm 4 m/s 748 mmHg 96%
    14:00 +13°C° 2.1 mm 4 m/s 748 mmHg 97%
    15:00 +13°C° 2.1 mm 3 m/s 747 mmHg 98%
    16:00 +13°C° 0.7 mm 4 m/s 747 mmHg 97%
    17:00 +13°C° 0.7 mm 4 m/s 747 mmHg 97%
    18:00 +14°C° 0.7 mm 4 m/s 746 mmHg 97%
    19:00 +13°C° 0.1 mm 4 m/s 746 mmHg 97%
    20:00 +13°C° 0.1 mm 4 m/s 746 mmHg 97%
    21:00 +13°C° 0.1 mm 3 m/s 746 mmHg 98%
    22:00 +13°C° 0.1 mm 4 m/s 746 mmHg 97%
    23:00 +13°C° 0.1 mm 4 m/s 746 mmHg 96%

    Amanhã, 20 Julho, Sábado

    Tempo Temperatura Precipitação Vento Pressão Humidade
    00:00 +13°C° 0.1 mm 4 m/s 746 mmHg 96%
    01:00 +12°C° 0 mm 4 m/s 747 mmHg 95%
    02:00 +12°C° 0 mm 5 m/s 747 mmHg 95%
    03:00 +12°C° 0 mm 5 m/s 747 mmHg 95%
    04:00 +12°C° 0 mm 5 m/s 747 mmHg 94%
    05:00 +12°C° 0 mm 5 m/s 748 mmHg 94%
    06:00 +12°C° 0 mm 5 m/s 748 mmHg 93%
    07:00 +13°C° 0 mm 5 m/s 748 mmHg 91%
    08:00 +14°C° 0 mm 5 m/s 749 mmHg 88%
    09:00 +14°C° 0 mm 5 m/s 750 mmHg 85%
    10:00 +15°C° 0 mm 5 m/s 750 mmHg 81%
    11:00 +15°C° 0 mm 5 m/s 751 mmHg 78%
    12:00 +16°C° 0 mm 5 m/s 751 mmHg 74%
    13:00 +17°C° 0 mm 4 m/s 751 mmHg 74%
    14:00 +17°C° 0 mm 4 m/s 752 mmHg 74%
    15:00 +17°C° 0 mm 4 m/s 752 mmHg 75%
    16:00 +17°C° 0 mm 4 m/s 753 mmHg 76%
    17:00 +17°C° 0 mm 3 m/s 753 mmHg 78%
    18:00 +16°C° 0 mm 3 m/s 753 mmHg 80%
    19:00 +15°C° 0 mm 2 m/s 754 mmHg 83%
    20:00 +14°C° 0 mm 2 m/s 754 mmHg 85%
    21:00 +14°C° 0 mm 1 m/s 755 mmHg 88%
    22:00 +13°C° 0 mm 2 m/s 755 mmHg 89%
    23:00 +13°C° 0 mm 2 m/s 755 mmHg 90%

    Depois de amanhã, 21 Julho, Domingo

    Tempo Temperatura Precipitação Vento Pressão Humidade
    00:00 +12°C° 0 mm 3 m/s 756 mmHg 90%
    01:00 +12°C° 0 mm 3 m/s 756 mmHg 90%
    02:00 +12°C° 0 mm 3 m/s 756 mmHg 90%
    03:00 +11°C° 0 mm 4 m/s 756 mmHg 91%
    04:00 +12°C° 0 mm 4 m/s 756 mmHg 91%
    05:00 +12°C° 0 mm 4 m/s 756 mmHg 91%
    06:00 +12°C° 0 mm 4 m/s 756 mmHg 91%
    07:00 +13°C° 0 mm 5 m/s 756 mmHg 89%
    08:00 +14°C° 0 mm 5 m/s 756 mmHg 86%
    09:00 +15°C° 0 mm 5 m/s 756 mmHg 84%
    10:00 +15°C° 0.2 mm 6 m/s 756 mmHg 86%
    11:00 +15°C° 0.2 mm 6 m/s 756 mmHg 88%
    12:00 +14°C° 0.2 mm 6 m/s 756 mmHg 90%
    13:00 +15°C° 0.4 mm 7 m/s 756 mmHg 90%
    14:00 +15°C° 0.4 mm 7 m/s 756 mmHg 91%
    15:00 +16°C° 0.4 mm 8 m/s 756 mmHg 92%
    16:00 +16°C° 0.1 mm 7 m/s 756 mmHg 92%
    17:00 +17°C° 0.1 mm 6 m/s 756 mmHg 92%
    18:00 +17°C° 0.1 mm 6 m/s 755 mmHg 92%
    19:00 +17°C° 2.7 mm 6 m/s 756 mmHg 93%
    20:00 +17°C° 2.7 mm 6 m/s 756 mmHg 95%
    21:00 +17°C° 2.7 mm 6 m/s 756 mmHg 96%
    22:00 +17°C° 1.5 mm 6 m/s 755 mmHg 96%
    23:00 +17°C° 1.5 mm 7 m/s 755 mmHg 95%

    22 Julho, Segunda-feira

    Tempo Temperatura Precipitação Vento Pressão Humidade
    00:00 +17°C° 1.5 mm 7 m/s 755 mmHg 95%
    01:00 +17°C° 0.1 mm 7 m/s 754 mmHg 94%
    02:00 +17°C° 0.1 mm 8 m/s 754 mmHg 94%
    03:00 +17°C° 0.1 mm 8 m/s 754 mmHg 93%
    04:00 +17°C° 0.1 mm 8 m/s 754 mmHg 93%
    05:00 +17°C° 0.1 mm 8 m/s 754 mmHg 92%
    06:00 +17°C° 0.1 mm 8 m/s 754 mmHg 91%
    07:00 +18°C° 0 mm 8 m/s 755 mmHg 89%
    08:00 +18°C° 0 mm 8 m/s 755 mmHg 88%
    09:00 +18°C° 0 mm 8 m/s 756 mmHg 86%
    10:00 +20°C° 0 mm 8 m/s 756 mmHg 83%
    11:00 +21°C° 0 mm 8 m/s 756 mmHg 81%
    12:00 +22°C° 0 mm 8 m/s 756 mmHg 78%
    13:00 +23°C° 0 mm 8 m/s 756 mmHg 77%
    14:00 +23°C° 0 mm 8 m/s 756 mmHg 76%
    15:00 +24°C° 0 mm 8 m/s 756 mmHg 75%
    16:00 +23°C° 0 mm 8 m/s 756 mmHg 76%
    17:00 +23°C° 0 mm 8 m/s 756 mmHg 78%
    18:00 +22°C° 0 mm 8 m/s 756 mmHg 80%
    19:00 +21°C° 0 mm 8 m/s 756 mmHg 82%
    20:00 +20°C° 0 mm 8 m/s 756 mmHg 84%
    21:00 +18°C° 0 mm 8 m/s 756 mmHg 86%
    22:00 +18°C° 0 mm 7 m/s 756 mmHg 86%
    23:00 +17°C° 0 mm 7 m/s 757 mmHg 87%

    23 Julho, Terça-feira

    Tempo Temperatura Precipitação Vento Pressão Humidade
    00:00 +17°C° 0 mm 7 m/s 757 mmHg 87%
    01:00 +17°C° 0 mm 7 m/s 756 mmHg 88%
    02:00 +16°C° 0 mm 7 m/s 756 mmHg 90%
    03:00 +16°C° 0 mm 7 m/s 756 mmHg 91%
    04:00 +16°C° 0 mm 7 m/s 756 mmHg 90%
    05:00 +16°C° 0 mm 7 m/s 756 mmHg 88%
    06:00 +16°C° 0 mm 7 m/s 755 mmHg 87%
    07:00 +17°C° 0 mm 7 m/s 755 mmHg 86%
    08:00 +18°C° 0 mm 7 m/s 756 mmHg 85%
    09:00 +18°C° 0 mm 7 m/s 756 mmHg 85%
    10:00 +20°C° 0 mm 7 m/s 756 mmHg 83%
    11:00 +21°C° 0 mm 8 m/s 755 mmHg 81%
    12:00 +21°C° 0 mm 8 m/s 755 mmHg 79%
    13:00 +22°C° 0 mm 7 m/s 755 mmHg 78%
    14:00 +22°C° 0 mm 7 m/s 755 mmHg 77%
    15:00 +22°C° 0 mm 7 m/s 754 mmHg 76%
    16:00 +22°C° 0 mm 7 m/s 754 mmHg 78%
    17:00 +21°C° 0 mm 6 m/s 754 mmHg 79%
    18:00 +21°C° 0 mm 6 m/s 754 mmHg 81%
    19:00 +20°C° 0 mm 5 m/s 754 mmHg 82%
    20:00 +19°C° 0 mm 5 m/s 754 mmHg 83%
    21:00 +18°C° 0 mm 4 m/s 754 mmHg 85%
    22:00 +18°C° 0 mm 4 m/s 753 mmHg 86%
    23:00 +17°C° 0 mm 4 m/s 753 mmHg 88%

    24 Julho, Quarta-feira

    Tempo Temperatura Precipitação Vento Pressão Humidade
    00:00 +17°C° 0 mm 4 m/s 753 mmHg 89%
    01:00 +17°C° 0 mm 4 m/s 753 mmHg 90%
    02:00 +17°C° 0 mm 4 m/s 753 mmHg 90%
    03:00 +15°C° 0 mm 4 m/s 752 mmHg 90%
    04:00 +17°C° 0 mm 4 m/s 752 mmHg 90%
    05:00 +17°C° 0 mm 4 m/s 752 mmHg 90%
    06:00 +17°C° 0 mm 4 m/s 752 mmHg 90%
    07:00 +17°C° 0.2 mm 4 m/s 752 mmHg 90%
    08:00 +18°C° 0.2 mm 4 m/s 752 mmHg 90%
    09:00 +17°C° 0.2 mm 5 m/s 751 mmHg 89%
    10:00 +19°C° 0.3 mm 5 m/s 751 mmHg 89%
    11:00 +19°C° 0.3 mm 6 m/s 751 mmHg 89%
    12:00 +18°C° 0.3 mm 7 m/s 751 mmHg 89%
    13:00 +19°C° 0.1 mm 6 m/s 751 mmHg 90%
    14:00 +19°C° 0.1 mm 5 m/s 751 mmHg 90%
    15:00 +19°C° 0.1 mm 5 m/s 750 mmHg 90%
    16:00 +19°C° 0.1 mm 4 m/s 750 mmHg 89%
    17:00 +19°C° 0.1 mm 4 m/s 750 mmHg 88%
    18:00 +20°C° 0.1 mm 4 m/s 750 mmHg 88%
    19:00 +19°C° 0.4 mm 4 m/s 750 mmHg 90%
    20:00 +18°C° 0.4 mm 4 m/s 751 mmHg 92%
    21:00 +16°C° 0.4 mm 5 m/s 751 mmHg 94%
    22:00 +17°C° 0.5 mm 4 m/s 750 mmHg 95%
    23:00 +17°C° 0.5 mm 4 m/s 750 mmHg 96%
    Mostrar mais